Voltar ao catálogo

COSMOS 2251 DEB

AtivoLEO
NORAD 35475·DEBRIS·🇷🇺 Russia

Lançado Jun 16, 1993 de Plesetsk Cosmodrome

Loading…

Próximas Passagens (próximas 24 horas)

TLE

AtualizadoSource: Space-Track

Época: Sep 13, 2026, 14:12 UTC

1 35475U 93036ALV 26256.59228663  .00005741  00000-0  85665-3 0  9997
2 35475  74.0231 349.9159 0020599 353.3368   6.7529 14.74902375696630

Acompanhe COSMOS 2251 DEB em tempo real com AllMySat

Download on the App Store